Meath Environmental Platform

Observations for Trim Market St

Time AQI Temp °C Hum % Pres Pa CO μg/m³ H₂S μg/m³ NO μg/m³ NO₂ μg/m³ O₃ μg/m³ SO₂ μg/m³ PM1 μg/m³ PM2.5 μg/m³ PM10 μg/m³
Wednesday 8 July 2026
22:57 1 22.2 63 57,428 0 0 0 7.9 18.18 0 0.71 1.89 3.52
22:54 1 22.3 63 57,470 0 0 0 6.61 14.95 0 0 2.4 3.51
22:51 1 22.4 63 57,505 0 0 0 9.09 11.66 0 0.71 2.41 3.51
22:49 1 22.5 62 57,533 0 0 0 8.79 20.9 0 0 1.92 2.83
22:45 1 22.6 62 57,599 0 0 0 8.2 18.55 0 0 2.92 4.16
22:43 1 22.7 62 57,628 0 0 0 10.2 23.13 0 0.71 2.94 4.15
22:37 1 22.9 61 57,690 0 0 0 4.22 11.88 0 0 1.47 2.1
22:36 1 22.9 61 57,696 0 0 0 9.33 18.8 0 1.43 2.97 4.13
22:35 1 23 61 57,705 0 0 0 6.2 11.4 0 0 1.97 2.78
22:34 1 23.1 61 57,711 0 0 0 7.29 17.15 0 1.43 2.48 3.45
22:33 1 23.1 61 57,720 0 0 0 8.51 22.64 0 0.71 1.99 2.76
22:32 1 23.1 61 57,726 0 0 0 7.01 15.65 0 0.71 2.49 3.44
22:31 1 23.2 61 57,732 0 0 0 9.19 21.11 0 0.71 1.99 2.76
22:30 1 23.2 61 57,737 0 0 0 5.29 11.85 0 0.71 2.99 4.12
22:29 1 23.3 61 57,739 0 0 0 7.38 16.7 0 0.71 2.49 3.44
22:28 1 23.3 61 57,745 0 0 0 8.09 19.31 0 0.71 2 2.75
22:27 1 23.3 60 57,751 0 0 0 10 25.14 0 0 2 2.75
22:26 1 23.4 60 57,757 0 0 0 8.78 18.54 0 0.71 3.01 4.11
22:25 1 23.4 60 57,763 0 0 0 5.9 15.78 0 0 2.51 3.42
22:24 1 23.5 60 57,766 0 0 0 5.07 17.84 0 1.43 3.01 4.11